Theta_e
305 304 305 306 306 307 306 306 305 305 305 303 303 302 303 303 301 300 297 295 294 294 294 294 295 296 295 295 294 293 292 291 290 290 290 289 289 289 289 289 289 290 290 290
303 304 305 305 305 305 305 305 304 305 304 303 303 303 303 301 299 297 297 296 294 293 292 293 294 294 294 293 292 292 291 290 289 289 288 287 287 288 288 289 289 289 289 289
304 306 303 304 305 305 305 305 306 305 302 303 302 303 304 300 299 298 296 295 294 293 292 292 292 293 293 292 291 290 290 289 289 287 287 287 287 287 287 288 288 288 288 288
304 303 304 304 305 305 308 303 303 303 300 306 302 304 304 300 300 298 297 295 294 293 293 292 292 292 292 291 290 289 289 288 287 286 286 286 285 286 286 286 286 287 287 287
304 303 305 305 306 304 305 302 302 303 301 298 303 298 303 301 300 299 296 295 294 294 293 293 291 291 291 290 290 289 288 287 286 286 285 285 285 285 285 285 285 285 286 286
303 301 303 303 301 301 302 303 304 302 305 307 300 301 304 299 299 300 297 296 294 293 293 292 292 291 291 290 289 288 287 286 286 285 285 284 284 284 284 284 284 285 285 285
304 304 302 302 303 302 301 303 299 307 304 301 301 301 303 301 298 297 295 294 293 293 293 292 291 289 289 289 288 287 286 285 285 284 284 284 283 283 283 283 283 284 284 284
308 306 303 303 303 302 304 300 301 301 304 302 301 298 303 295 290 287 288 288 294 294 292 291 291 289 288 288 287 286 285 285 284 284 283 283 282 282 282 283 283 283 282 282
307 306 301 300 301 301 304 303 301 299 289 295 298 302 299 299 294 292 291 295 295 293 291 290 289 289 288 287 286 285 284 283 283 283 282 281 281 282 282 282 282 281 281 282
304 305 302 300 300 300 301 300 299 293 296 298 300 300 301 296 291 293 291 293 293 291 290 289 288 288 287 286 285 284 283 282 282 281 281 281 281 281 281 281 281 281 281 281
302 301 302 300 300 298 302 299 300 298 297 295 297 300 293 293 289 290 291 292 290 288 287 286 287 288 286 285 284 282 281 281 281 281 280 280 280 280 280 280 280 281 281 281
302 298 298 297 298 298 298 296 295 294 295 290 296 298 289 289 286 286 291 292 287 287 286 284 285 287 286 285 283 282 280 280 281 281 279 279 279 280 280 280 280 280 280 281
300 301 303 303 300 298 300 301 295 293 294 293 298 297 284 283 287 289 287 286 287 289 286 282 281 282 285 285 283 282 281 281 281 280 280 280 279 279 280 280 280 280 280 281
300 299 295 297 296 291 299 300 300 298 290 288 295 290 288 289 290 289 286 286 283 281 281 278 282 281 285 286 284 282 282 281 280 280 281 280 280 280 280 280 280 280 281 281
297 294 293 296 300 295 289 290 297 301 295 298 290 289 287 289 287 287 285 284 284 283 283 281 280 278 285 285 285 284 283 282 281 281 280 281 281 281 280 279 280 280 281 282
296 295 288 287 284 283 292 291 292 299 298 295 296 297 288 285 281 286 285 284 281 279 282 280 279 281 284 285 284 284 284 283 281 281 281 282 282 282 282 281 281 281 281 280
296 292 289 288 286 289 291 288 290 289 282 295 299 294 282 285 284 284 287 281 282 282 279 281 280 283 286 286 284 283 284 283 282 282 282 282 283 283 283 282 281 281 281 280
294 293 288 289 286 292 289 276 281 289 281 280 284 282 281 283 283 283 282 288 281 283 280 280 283 286 287 286 285 283 283 283 283 283 283 283 283 283 283 283 282 282 281 280
292 292 290 290 287 291 295 285 285 290 289 280 287 279 279 279 282 285 281 280 281 279 282 284 285 284 284 284 284 283 283 282 282 282 283 284 284 283 283 282 282 281 280 280
298 295 292 286 287 289 290 285 283 283 292 279 280 279 283 289 286 287 283 281 280 284 285 283 282 281 281 281 281 282 282 282 281 282 283 283 284 283 283 282 282 281 280 280
296 295 295 288 287 289 286 289 289 294 293 279 278 278 283 286 283 278 281 282 283 283 282 282 280 279 279 279 279 280 281 281 281 281 281 281 282 283 283 282 281 280 280 280
289 288 286 289 293 292 286 289 292 286 279 278 277 278 280 276 278 277 279 280 282 281 280 280 278 278 278 278 278 278 279 279 278 279 280 281 281 282 282 282 282 280 280 279
291 290 290 291 292 287 283 286 279 276 279 279 281 279 282 282 281 282 282 281 281 280 279 278 277 277 277 276 276 276 276 276 276 276 277 279 280 280 281 281 281 280 279 278
290 291 293 293 291 287 284 283 282 280 284 284 283 283 282 282 281 280 279 280 279 278 277 276 276 275 275 275 275 274 274 274 274 274 275 276 278 279 279 280 279 279 278 278
293 292 293 293 292 289 289 288 286 283 281 282 281 281 280 280 279 278 278 278 277 276 275 275 275 274 274 274 273 273 272 272 272 273 274 275 276 277 278 279 279 279 279 278
292 293 295 294 294 294 291 287 285 284 283 281 281 280 279 278 277 276 276 275 275 274 274 273 273 272 272 272 272 271 271 272 271 272 273 273 274 276 277 278 279 280 280 280
Wind_Speed
3 3 6 8 8 1 3 3 4 5 2 5 5 9 14 14 7 6 8 7 9 9 7 19 22 22 21 15 12 8 6 5 5 6 6 5 7 10 10 9 8 8 9 9
3 6 5 5 5 3 2 1 5 5 3 3 6 15 16 6 5 6 7 7 7 5 7 9 11 10 8 9 7 7 5 5 5 5 6 7 10 7 11 9 7 4 4 7
6 1 5 3 1 3 2 3 2 3 6 2 7 7 6 4 6 7 7 6 5 6 5 3 4 4 7 7 7 7 6 6 6 6 8 9 8 6 5 7 9 9 11 10
4 5 4 3 3 4 2 1 1 2 4 2 4 5 5 4 6 6 5 6 5 5 3 4 6 6 4 4 6 5 6 7 6 7 9 7 7 7 6 8 10 10 8 9
4 5 4 3 2 3 3 1 2 2 3 4 3 3 6 3 2 2 4 4 4 1 1 2 4 5 5 5 5 5 5 6 6 8 8 7 8 8 10 11 11 11 9 8
3 1 3 2 3 3 2 2 3 2 2 2 5 4 4 2 4 1 2 2 5 6 6 5 5 6 6 7 7 6 6 6 7 9 8 8 9 9 10 12 12 10 10 12
3 2 2 2 4 1 5 4 3 3 1 5 4 1 6 3 3 3 3 7 7 6 3 2 3 6 8 9 8 6 6 7 7 9 9 8 9 9 10 10 11 11 13 15
6 3 3 1 2 5 3 5 4 6 2 4 2 5 5 5 4 4 4 6 5 6 5 4 4 4 4 5 5 5 5 6 8 9 9 9 9 8 10 10 10 13 16 15
4 2 3 5 2 1 3 2 3 4 3 3 3 3 3 2 5 5 6 6 7 7 7 6 5 5 6 6 5 5 7 8 9 11 12 10 7 8 10 11 12 13 14 13
3 5 2 3 2 4 2 2 4 3 1 3 5 4 5 4 4 5 6 7 8 7 8 6 5 5 5 6 7 8 9 11 12 11 9 9 8 10 9 10 12 12 13 13
3 4 3 3 5 6 2 1 1 2 3 5 2 5 4 8 6 5 6 6 7 7 7 6 6 5 5 7 10 12 11 11 10 9 9 9 8 8 9 11 11 12 12 13
2 4 3 3 0 2 2 5 5 4 5 2 3 6 5 6 5 5 6 4 5 4 6 6 8 6 8 10 11 11 11 11 9 9 9 8 6 8 9 11 11 11 12 11
4 2 4 1 1 1 3 4 3 3 2 5 5 5 2 3 4 5 3 4 4 4 6 5 8 10 11 12 12 12 12 12 10 10 9 8 7 8 8 10 10 10 10 9
3 2 5 6 4 5 5 10 10 5 3 3 7 5 4 4 5 6 5 4 4 5 6 5 7 12 14 12 12 12 13 12 11 10 10 9 7 7 7 9 8 9 7 8
3 5 2 3 5 2 6 6 11 16 11 7 4 6 6 6 5 4 4 5 4 5 7 6 6 6 15 14 13 13 14 12 12 12 13 11 7 7 8 9 8 8 7 5
1 3 3 4 3 4 5 9 10 16 14 12 13 22 7 4 2 4 5 5 4 4 8 7 6 10 15 19 18 15 14 13 12 14 14 10 9 8 9 8 8 8 7 8
5 4 3 4 1 0 6 9 12 5 3 10 12 10 2 3 5 4 6 4 2 6 6 8 8 13 18 22 20 17 14 11 13 15 14 12 11 11 11 10 10 10 10 10
5 4 3 3 2 1 6 2 3 7 5 5 2 4 5 4 5 3 2 4 4 5 6 7 12 17 21 22 21 18 14 13 14 16 17 15 14 15 13 14 15 14 13 14
4 4 1 3 3 5 1 4 6 6 6 6 8 3 4 5 3 2 2 2 3 5 9 13 18 19 21 20 21 18 15 14 16 20 21 20 18 19 19 19 19 17 17 17
1 3 3 2 3 5 6 4 5 4 4 3 6 3 1 3 3 3 4 2 4 13 11 15 20 20 20 23 21 18 17 16 17 21 23 22 22 23 25 24 24 22 20 21
4 2 5 3 2 7 5 4 5 5 5 4 5 4 3 2 4 4 6 6 10 11 15 17 19 18 20 21 20 18 18 19 20 21 21 21 22 23 25 26 25 24 23 22
6 6 4 3 3 8 4 5 6 4 1 4 2 2 2 4 5 5 6 6 7 10 15 16 15 16 19 19 19 17 15 20 23 23 22 23 22 24 25 25 27 26 25 25
2 6 4 7 5 4 4 4 3 3 4 3 3 3 1 2 2 5 5 6 9 12 13 15 15 17 17 19 18 17 20 22 25 25 24 23 22 22 22 24 27 27 26 26
3 4 2 2 3 4 4 2 3 3 4 4 3 2 2 2 4 5 5 6 8 12 13 15 15 15 17 20 20 20 21 23 24 24 24 22 21 21 20 21 24 25 24 25
4 5 5 3 2 2 2 4 7 5 4 6 4 3 4 3 4 4 5 6 10 13 14 15 14 15 17 20 21 23 24 23 23 21 23 22 19 19 21 21 21 23 26 25
5 6 5 5 5 3 2 10 8 6 4 4 4 4 5 5 4 6 4 8 10 13 15 15 15 16 19 20 23 23 24 22 22 19 18 19 18 18 17 19 21 20 21 22
Wind_Direction
210 117 210 209 211 165 141 173 238 272 338 338 255 286 284 281 294 334 65 58 66 57 46 80 100 116 123 131 147 163 181 201 252 282 296 292 300 308 318 325 326 340 340 335
63 220 204 151 129 131 97 301 276 282 67 359 297 294 293 348 71 85 77 67 66 68 44 57 82 100 118 141 157 170 181 209 262 289 294 301 309 313 326 329 322 341 339 317
162 174 141 140 165 161 205 205 264 241 335 309 325 310 349 45 82 78 64 86 73 115 115 83 86 121 142 158 173 167 181 234 269 284 292 301 304 307 325 329 315 313 311 315
229 181 174 174 197 126 195 123 98 20 49 258 52 282 335 62 69 70 70 69 73 63 111 167 170 170 171 153 163 197 246 265 283 288 299 307 311 315 318 319 314 315 315 318
225 154 133 132 150 102 193 115 135 96 69 48 318 81 272 183 59 46 84 75 51 36 254 202 154 167 170 194 224 240 260 281 291 293 296 298 296 299 303 307 307 307 318 314
111 53 82 128 104 105 120 71 73 73 78 322 242 149 264 253 204 111 122 347 321 305 283 255 227 222 240 244 250 258 249 265 278 285 290 296 300 308 310 311 317 326 325 322
121 128 85 77 107 172 69 72 1 334 351 221 256 118 252 229 222 186 281 310 312 304 300 283 226 237 254 241 235 229 243 278 281 284 289 292 293 303 302 309 320 322 324 321
153 267 137 38 144 174 155 141 156 214 240 257 323 240 262 218 255 258 253 274 311 333 315 292 262 246 248 226 233 239 254 267 276 280 287 287 290 293 299 303 301 307 307 309
128 127 91 62 31 53 182 157 143 95 33 44 231 281 350 135 346 348 333 329 320 315 311 302 274 258 252 247 256 262 271 272 275 282 286 291 294 298 291 293 298 297 298 303
173 103 155 129 56 34 118 159 65 7 178 267 288 265 226 198 284 313 327 331 321 318 328 312 305 274 256 251 255 266 270 273 279 287 289 291 284 284 289 289 289 293 296 303
122 93 138 101 201 172 146 66 142 126 168 165 259 264 220 168 209 247 290 308 306 314 323 312 304 294 245 255 270 276 272 272 277 284 291 287 278 290 289 286 291 297 304 308
158 134 145 200 55 306 183 192 151 141 245 208 152 271 201 178 204 221 276 302 292 306 332 318 305 294 276 278 283 280 273 273 278 279 278 285 287 287 289 290 293 295 299 305
179 151 130 145 91 18 227 193 176 144 102 205 147 258 300 264 304 259 277 309 340 339 338 326 347 316 307 304 289 279 275 274 267 264 278 279 271 274 289 292 293 292 298 305
98 112 161 181 187 141 194 208 204 154 144 198 226 255 291 262 309 318 306 305 312 318 320 316 347 339 325 305 292 278 270 265 264 266 269 268 271 274 281 282 287 290 299 303
104 174 107 263 239 234 198 191 200 210 213 193 240 214 251 240 241 263 277 297 325 343 336 328 323 305 340 328 304 282 275 266 262 264 262 264 266 269 276 279 275 274 280 290
82 148 93 305 344 185 246 229 212 222 236 253 270 281 214 259 321 315 277 286 303 313 311 313 298 310 329 337 329 308 284 271 262 263 263 265 261 261 261 264 266 271 275 278
147 130 99 268 229 112 304 227 190 193 233 214 242 247 233 305 318 290 299 236 269 306 299 311 304 311 327 335 334 316 305 284 265 265 268 267 263 261 257 257 261 263 272 280
142 120 114 228 36 339 242 234 174 196 222 220 284 247 209 205 252 280 50 67 315 310 296 299 310 320 334 336 339 329 305 289 275 271 270 269 265 265 263 260 262 268 274 274
140 136 152 154 216 290 310 224 165 159 276 206 215 252 249 294 334 270 202 188 236 255 284 309 338 341 337 340 344 334 324 298 283 275 274 274 270 267 265 262 265 270 270 273
214 100 134 83 147 223 242 247 186 135 305 237 145 188 243 5 348 255 321 298 309 329 341 343 346 342 343 341 341 333 324 320 304 300 294 290 279 268 265 265 267 270 270 274
148 137 200 182 221 284 236 196 173 95 234 202 151 190 202 215 211 257 325 333 325 342 347 348 348 341 342 346 346 339 333 322 325 320 311 300 290 278 272 270 267 267 268 270
158 147 192 142 188 264 156 93 165 209 359 148 145 194 213 242 294 303 309 317 345 347 352 353 345 338 344 351 349 339 334 332 326 319 311 302 296 287 281 276 272 267 264 265
233 183 185 185 214 220 211 169 222 149 142 198 149 197 207 303 321 331 335 347 348 348 346 348 343 336 341 351 349 338 332 334 336 333 322 314 305 294 284 276 274 269 264 261
261 178 210 59 261 208 162 81 148 157 140 134 112 111 68 356 345 345 340 349 347 346 347 344 343 342 337 342 343 342 339 341 335 331 330 325 316 308 298 284 277 269 261 257
200 141 197 261 288 42 205 187 159 151 120 109 102 100 75 34 15 357 341 347 342 340 341 344 343 340 335 337 338 348 348 343 337 328 327 326 322 316 309 298 287 274 272 261
187 186 181 220 204 170 179 153 150 146 137 123 127 99 70 53 20 354 338 340 339 335 339 343 340 339 337 339 342 349 350 348 340 328 327 324 320 316 312 302 295 294 275 271